This is the latest recevied weather packets stored in our database for station/object EA2BK-11. If no packets are shown the sender has not sent any weather packets the latest 10 day(s).
| Time | Temp. | Humidity | Pressure | Rain* | Wind** | Luminosity | Snow |
|---|---|---|---|---|---|---|---|
| 1777835417 | 16.11° C | 72% | 944 hPa | - | - | - | - |
| 1777834512 | 17.22° C | 64% | 943 hPa | - | - | - | - |
| 1777833607 | 17.22° C | 63% | 943 hPa | - | - | - | - |
| 1777832702 | 17.22° C | 64% | 943 hPa | - | - | - | - |
| 1777831797 | 18.33° C | 61% | 943 hPa | - | - | - | - |
| 1777830891 | 20.56° C | 58% | 942 hPa | - | - | - | - |
| 1777829986 | 24.44° C | 50% | 942 hPa | - | - | - | - |
| 1777829081 | 21.11° C | 58% | 943 hPa | - | - | - | - |
| 1777828176 | 21.11° C | 59% | 943 hPa | - | - | - | - |
| 1777827270 | 19.44° C | 65% | 943 hPa | - | - | - | - |
| 1777826365 | 19.44° C | 64% | 943 hPa | - | - | - | - |
| 1777825460 | 18.89° C | 64% | 943 hPa | - | - | - | - |
| 1777824555 | 18.33° C | 65% | 943 hPa | - | - | - | - |
| 1777823650 | 18.33° C | 65% | 943 hPa | - | - | - | - |
| 1777822745 | 18.89° C | 64% | 943 hPa | - | - | - | - |
| 1777822547 | 18.89° C | 63% | 943 hPa | - | - | - | - |
| 1777821840 | 18.89° C | 63% | 943 hPa | - | - | - | - |
| 1777820934 | 21.11° C | 61% | 943 hPa | - | - | - | - |
| 1777820029 | 22.78° C | 57% | 943 hPa | - | - | - | - |
| 1777819124 | 23.89° C | 57% | 944 hPa | - | - | - | - |
| 1777818219 | 25° C | 54% | 944 hPa | - | - | - | - |
| 1777817314 | 22.78° C | 58% | 944 hPa | - | - | - | - |
| 1777816408 | 18.33° C | 68% | 944 hPa | - | - | - | - |
| 1777815503 | 17.78° C | 69% | 944 hPa | - | - | - | - |
| 1777814598 | 17.22° C | 71% | 944 hPa | - | - | - | - |
* Rain since midnight (hover to see other rain measurements)
** Current wind speed in m/s (hover to see current wind gust speed)